Weather in Tkvarcheli

Abkhazia     42°50′49″N   41°41′15″E
temp.,
°C
wind,
m/s
gust,
m/s
humid.,
%
clouds,
%
prec.,
mm/h
press.,
hPa
HPBL,
m
15 august, mon
mon1500:00+21ne117949 0.0 100616
03:00+20ne11680 0.0 100517
06:00+21ne22650 0.0 100518
09:00+27wsw21570 0.0 1005486
12:00+31w21430 0.0 1004917
15:00+34w32360 0.0 1003867
18:00+25sw12750 0.0 1005195
21:00+21ene11890 0.0 100713
16 august, tue
tue1600:00+21ene11820 0.0 100814
03:00+21ne21750 0.0 100916
06:00+21ene22680 0.0 101024
09:00+26s22690 0.0 1011752
12:00+30sw22503 0.0 10101414
15:00+30wsw435813 0.0 10101178
18:00+26wsw22798 0.1 1011388
21:00+22e119552 0.2 101219
17 august, wed
wed1700:00+22e119461 0.1 101225
03:00+21ne119145 0.3 101222
06:00+20ne218527 0.0 101122
09:00+26sw11670 0.0 1010575
12:00+30wsw32540 0.0 10091224
15:00+30w43550 0.0 1008830
18:00+26wsw23780 0.1 1009339
21:00+21e119729 0.1 101011
18 august, thu
thu1800:00+21ene118356 0.0 101017
03:00+21ne226133 0.0 101025
06:00+21ne22550 0.0 101021
09:00+26ssw21620 0.0 1010618
12:00+30sw22450 0.0 10081288
15:00+30wsw43490 0.0 1007936
18:00+25sw22781 0.0 1009336
21:00+22ne119384 0.1 101033
19 august, fri
fri1900:00+21ene119190 0.1 101017
03:00+20ne2276100 0.3 100925
06:00+20ene226574 0.3 100930
09:00+26sw216195 0.3 1009696
12:00+29sw225069 0.0 10081368
15:00+29wsw435554 0.0 10081038
18:00+24ssw227818 0.0 1009381
21:00+21e0194100 0.3 101117